Time,TemperatureF,DewpointF,PressureIn,WindDirection,WindDirectionDegrees,WindSpeedMPH,WindSpeedGustMPH,Humidity,HourlyPrecipIn,Conditions,Clouds,dailyrainin,SoftwareType,DateUTC
2015-05-06 00:00:00,67.8,58.0,30.14,NW,309,0.0,0.0,71,0.00,,,0.00,weatherlink.com 1.10,2015-05-06 04:00:00,
2015-05-06 00:15:00,66.7,58.0,30.14,NW,310,0.0,0.0,74,0.00,,,0.00,weatherlink.com 1.10,2015-05-06 04:15:00,
2015-05-06 00:30:00,66.1,58.0,30.14,NW,309,0.0,0.0,75,0.00,,,0.00,weatherlink.com 1.10,2015-05-06 04:30:00,
2015-05-06 00:45:00,65.3,58.0,30.15,NW,309,0.0,2.0,78,0.00,,,0.00,weatherlink.com 1.10,2015-05-06 04:45:00,
2015-05-06 01:00:00,64.7,58.0,30.15,NW,309,0.0,0.0,79,0.00,,,0.00,weatherlink.com 1.10,2015-05-06 05:00:00,
2015-05-06 01:15:00,64.6,58.0,30.15,NW,309,0.0,1.0,79,0.00,,,0.00,weatherlink.com 1.10,2015-05-06 05:15:00,
2015-05-06 01:30:00,64.2,58.0,30.15,NW,309,0.0,0.0,79,0.00,,,0.00,weatherlink.com 1.10,2015-05-06 05:30:00,
2015-05-06 01:46:00,63.6,58.0,30.15,NW,309,0.0,0.0,81,0.00,,,0.00,weatherlink.com 1.10,2015-05-06 05:46:00,
2015-05-06 02:01:00,63.0,57.0,30.15,NW,309,0.0,0.0,82,0.00,,,0.00,weatherlink.com 1.10,2015-05-06 06:01:00,
2015-05-06 02:16:00,62.6,57.0,30.15,NW,309,0.0,0.0,83,0.00,,,0.00,weatherlink.com 1.10,2015-05-06 06:16:00,
2015-05-06 02:31:00,62.2,57.0,30.14,NW,309,0.0,0.0,84,0.00,,,0.00,weatherlink.com 1.10,2015-05-06 06:31:00,
2015-05-06 02:46:00,61.8,57.0,30.14,NW,309,0.0,0.0,85,0.00,,,0.00,weatherlink.com 1.10,2015-05-06 06:46:00,
2015-05-06 03:01:00,61.2,57.0,30.14,NW,309,0.0,0.0,86,0.00,,,0.00,weatherlink.com 1.10,2015-05-06 07:01:00,
2015-05-06 03:16:00,60.8,57.0,30.14,NW,309,0.0,0.0,87,0.00,,,0.00,weatherlink.com 1.10,2015-05-06 07:16:00,
2015-05-06 03:31:00,60.4,57.0,30.15,NW,309,0.0,0.0,87,0.00,,,0.00,weatherlink.com 1.10,2015-05-06 07:31:00,
2015-05-06 03:46:00,60.2,57.0,30.15,NW,309,0.0,0.0,88,0.00,,,0.00,weatherlink.com 1.10,2015-05-06 07:46:00,
2015-05-06 04:01:00,60.0,57.0,30.15,NW,309,0.0,0.0,88,0.00,,,0.00,weatherlink.com 1.10,2015-05-06 08:01:00,
2015-05-06 04:16:00,59.6,56.0,30.15,NW,309,0.0,0.0,89,0.00,,,0.00,weatherlink.com 1.10,2015-05-06 08:16:00,
2015-05-06 04:31:00,59.4,56.0,30.15,NW,309,0.0,0.0,89,0.00,,,0.00,weatherlink.com 1.10,2015-05-06 08:31:00,
2015-05-06 04:46:00,59.2,56.0,30.14,NW,309,0.0,0.0,90,0.00,,,0.00,weatherlink.com 1.10,2015-05-06 08:46:00,
2015-05-06 05:01:00,59.1,56.0,30.15,NW,310,0.0,0.0,90,0.00,,,0.00,weatherlink.com 1.10,2015-05-06 09:01:00,
2015-05-06 05:16:00,58.9,56.0,30.15,NW,309,0.0,0.0,90,0.00,,,0.00,weatherlink.com 1.10,2015-05-06 09:16:00,
2015-05-06 05:31:00,58.7,56.0,30.15,NW,309,0.0,0.0,90,0.00,,,0.00,weatherlink.com 1.10,2015-05-06 09:31:00,
2015-05-06 05:46:00,58.5,56.0,30.15,NW,309,0.0,0.0,91,0.00,,,0.00,weatherlink.com 1.10,2015-05-06 09:46:00,
2015-05-06 06:01:00,58.2,56.0,30.15,NW,309,0.0,0.0,91,0.00,,,0.00,weatherlink.com 1.10,2015-05-06 10:01:00,
2015-05-06 06:17:00,57.9,55.0,30.15,NW,309,0.0,0.0,91,0.00,,,0.00,weatherlink.com 1.10,2015-05-06 10:17:00,
2015-05-06 06:31:00,57.7,55.0,30.15,NW,309,0.0,0.0,92,0.00,,,0.00,weatherlink.com 1.10,2015-05-06 10:31:00,
2015-05-06 06:46:00,57.7,55.0,30.15,NW,309,0.0,0.0,92,0.00,,,0.00,weatherlink.com 1.10,2015-05-06 10:46:00,
2015-05-06 07:01:00,57.8,56.0,30.16,NW,309,0.0,0.0,92,0.00,,,0.00,weatherlink.com 1.10,2015-05-06 11:01:00,
2015-05-06 07:16:00,58.4,56.0,30.16,NW,309,0.0,0.0,92,0.00,,,0.00,weatherlink.com 1.10,2015-05-06 11:16:00,
2015-05-06 07:31:00,59.3,57.0,30.16,NW,309,0.0,0.0,91,0.00,,,0.00,weatherlink.com 1.10,2015-05-06 11:31:00,
2015-05-06 07:46:00,60.4,58.0,30.16,NW,309,0.0,0.0,90,0.00,,,0.00,weatherlink.com 1.10,2015-05-06 11:46:00,
2015-05-06 08:01:00,61.1,58.0,30.16,NW,309,0.0,0.0,88,0.00,,,0.00,weatherlink.com 1.10,2015-05-06 12:01:00,
2015-05-06 08:16:00,61.8,58.0,30.17,NW,309,0.0,0.0,87,0.00,,,0.00,weatherlink.com 1.10,2015-05-06 12:16:00,
2015-05-06 08:31:00,63.0,59.0,30.17,SSE,157,0.0,0.0,85,0.00,,,0.00,weatherlink.com 1.10,2015-05-06 12:31:00,
2015-05-06 08:46:00,64.6,59.0,30.17,SW,229,1.0,2.0,82,0.00,,,0.00,weatherlink.com 1.10,2015-05-06 12:46:00,
2015-05-06 09:01:00,66.0,59.0,30.17,SW,229,0.0,2.0,79,0.00,,,0.00,weatherlink.com 1.10,2015-05-06 13:01:00,
2015-05-06 09:16:00,67.4,60.0,30.17,SW,233,0.0,1.0,78,0.00,,,0.00,weatherlink.com 1.10,2015-05-06 13:16:00,
2015-05-06 09:31:00,69.0,61.0,30.17,WSW,242,1.0,3.0,75,0.00,,,0.00,weatherlink.com 1.10,2015-05-06 13:31:00,
2015-05-06 09:46:00,70.2,61.0,30.17,SSE,163,0.0,3.0,73,0.00,,,0.00,weatherlink.com 1.10,2015-05-06 13:46:00,
2015-05-06 10:01:00,71.7,61.0,30.17,SSE,158,1.0,3.0,68,0.00,,,0.00,weatherlink.com 1.10,2015-05-06 14:01:00,
2015-05-06 10:16:00,73.3,61.0,30.17,SSE,167,1.0,4.0,66,0.00,,,0.00,weatherlink.com 1.10,2015-05-06 14:16:00,
2015-05-06 10:31:00,74.8,62.0,30.16,South,186,1.0,3.0,64,0.00,,,0.00,weatherlink.com 1.10,2015-05-06 14:31:00,
2015-05-06 10:46:00,76.0,63.0,30.16,South,178,2.0,3.0,64,0.00,,,0.00,weatherlink.com 1.10,2015-05-06 14:46:00,
2015-05-06 11:01:00,78.3,64.0,30.16,South,186,2.0,3.0,61,0.00,,,0.00,weatherlink.com 1.10,2015-05-06 15:01:00,
2015-05-06 11:16:00,79.8,63.0,30.16,West,276,2.0,3.0,57,0.00,,,0.00,weatherlink.com 1.10,2015-05-06 15:16:00,
2015-05-06 11:31:00,81.1,62.0,30.16,SE,140,1.0,4.0,52,0.00,,,0.00,weatherlink.com 1.10,2015-05-06 15:31:00,
2015-05-06 11:46:00,81.6,59.0,30.16,SSE,162,1.0,4.0,47,0.00,,,0.00,weatherlink.com 1.10,2015-05-06 15:46:00,
2015-05-06 12:01:00,82.4,60.0,30.15,SSE,148,1.0,5.0,47,0.00,,,0.00,weatherlink.com 1.10,2015-05-06 16:01:00,
2015-05-06 12:16:00,83.0,58.0,30.15,SE,146,3.0,5.0,43,0.00,,,0.00,weatherlink.com 1.10,2015-05-06 16:16:00,
2015-05-06 12:31:00,84.3,58.0,30.15,WNW,286,2.0,5.0,41,0.00,,,0.00,weatherlink.com 1.10,2015-05-06 16:31:00,
2015-05-06 12:46:00,84.9,57.0,30.14,WSW,258,0.0,7.0,39,0.00,,,0.00,weatherlink.com 1.10,2015-05-06 16:46:00,
2015-05-06 13:01:00,85.4,57.0,30.14,North,350,0.0,3.0,38,0.00,,,0.00,weatherlink.com 1.10,2015-05-06 17:01:00,
2015-05-06 13:16:00,85.9,56.0,30.13,NW,321,0.0,5.0,36,0.00,,,0.00,weatherlink.com 1.10,2015-05-06 17:16:00,
2015-05-06 13:31:00,84.9,57.0,30.13,East,86,1.0,5.0,38,0.00,,,0.00,weatherlink.com 1.10,2015-05-06 17:31:00,
2015-05-06 13:46:00,84.5,56.0,30.12,ESE,123,1.0,7.0,38,0.00,,,0.00,weatherlink.com 1.10,2015-05-06 17:46:00,
2015-05-06 14:01:00,84.6,57.0,30.12,SSE,155,0.0,3.0,39,0.00,,,0.00,weatherlink.com 1.10,2015-05-06 18:01:00,
2015-05-06 14:16:00,85.4,57.0,30.11,WSW,243,1.0,4.0,38,0.00,,,0.00,weatherlink.com 1.10,2015-05-06 18:16:00,
2015-05-06 14:32:00,87.0,54.0,30.11,SW,215,2.0,7.0,32,0.00,,,0.00,weatherlink.com 1.10,2015-05-06 18:32:00,
2015-05-06 14:47:00,86.5,56.0,30.11,West,271,0.0,3.0,35,0.00,,,0.00,weatherlink.com 1.10,2015-05-06 18:47:00,
2015-05-06 15:02:00,85.0,57.0,30.10,SE,138,2.0,5.0,38,0.00,,,0.00,weatherlink.com 1.10,2015-05-06 19:02:00,
2015-05-06 15:17:00,85.2,59.0,30.10,SE,138,0.0,5.0,41,0.00,,,0.00,weatherlink.com 1.10,2015-05-06 19:17:00,
2015-05-06 15:32:00,85.2,55.0,30.09,SSE,151,2.0,3.0,36,0.00,,,0.00,weatherlink.com 1.10,2015-05-06 19:32:00,
2015-05-06 15:47:00,85.7,55.0,30.08,East,101,0.0,6.0,35,0.00,,,0.00,weatherlink.com 1.10,2015-05-06 19:47:00,
2015-05-06 16:02:00,84.8,56.0,30.08,East,88,2.0,3.0,37,0.00,,,0.00,weatherlink.com 1.10,2015-05-06 20:02:00,
2015-05-06 16:17:00,83.3,56.0,30.07,SSE,149,0.0,3.0,39,0.00,,,0.00,weatherlink.com 1.10,2015-05-06 20:17:00,
2015-05-06 16:32:00,83.7,58.0,30.07,South,169,0.0,1.0,41,0.00,,,0.00,weatherlink.com 1.10,2015-05-06 20:32:00,
2015-05-06 16:47:00,84.7,57.0,30.06,ENE,74,2.0,3.0,39,0.00,,,0.00,weatherlink.com 1.10,2015-05-06 20:47:00,